{"data":{"norad_id":64476,"intl_designator":"2025-133E","name":"STARLINK-34496","alt_names":[],"object_type":"PAYLOAD","status":"ACTIVE","operator":null,"country":"US","launch_date":"2025-06-23","launch_site_code":"AFETR","launch_vehicle":null,"mission":null,"orbit_class":"UNKNOWN","rcs_meters":null,"size_class":null,"mass_kg":null,"dimensions":null,"purposes":["comms"],"wikipedia_slug":null,"has_3d_model":false,"image_url":null,"decayed_at":null,"tle_current":{"epoch":"2026-05-25T04:35:02.444064Z","epoch_age_seconds":48745,"freshness":"FRESH","line1":"1 64476U 25133E   26145.19100051  .00023712  00000+0  68819-3 0  9995","line2":"2 64476  53.1598 119.1490 0001043  89.0264 271.0859 15.35414975 52926","mean_motion":15.35414975,"eccentricity":0.0001043,"inclination_deg":53.1598,"raan_deg":119.149,"arg_perigee_deg":89.0264,"mean_anomaly_deg":271.0859,"bstar":0.00068819,"rev_number":5292,"period_min":93.785720697429,"perigee_km":458.97499738365,"apogee_km":460.40136771673,"semimajor_km":6837.8251825502,"source":"CELESTRAK","updated_at":"2026-05-25T13:38:20.456798Z"}}}